Vertical_Velocity
-1 1 0 -1 -0 1 1 0 -0 -0 -0 0 -0 -2 -1 -0 -1 -1 1 -3 -2 -2 -1 0 -1 -0 -0 -1 -1 -2 -2 -1 -1 -2 -3 -1 -1 1 3 -2 2 1 -2 3 -1
-0 -1 -2 -2 -2 -3 -3 -3 -3 -2 -1 0 -2 -2 -2 -1 2 2 0 0 -2 -3 -1 -2 -0 1 1 -1 -2 0 -0 -2 -0 -1 -0 -2 -2 -2 -1 -1 -0 -1 -3 -3 -2
-1 -1 -2 -1 -0 0 -0 0 2 3 0 -1 1 -1 -3 -2 -1 -1 -1 -0 1 1 1 -0 -1 -1 0 0 1 -1 -0 -2 -1 -0 -0 0 2 -3 -1 -1 3 -1 -4 -0 1
1 1 -0 -1 -1 -1 -1 -1 -1 -2 1 2 2 1 -1 -0 -5 -1 -3 -1 -1 -1 1 0 1 -0 -2 0 -2 1 1 1 -2 0 -1 -0 2 2 -3 -0 -0 -1 -1 -4 2
-1 -1 -1 -1 -1 1 1 0 -1 -1 0 2 1 0 -1 -5 -4 2 -1 -1 -1 -0 0 -3 -1 -2 3 3 0 -0 -3 -2 -0 -1 -1 -1 -1 -2 6 -1 -1 -7 2 1 -0
0 0 -0 -0 -1 0 2 2 2 1 -1 -0 -2 0 -2 -5 -0 -1 0 -2 -1 -0 -2 -0 -1 1 2 -0 1 -1 -2 0 -0 -1 -2 0 -0 -6 4 -4 -1 -2 2 -1 -1
0 1 -0 -1 -2 1 1 1 -1 -0 3 2 1 -1 0 -6 2 -1 -0 -1 -2 -3 -2 -3 -1 -2 5 -2 4 -4 3 -3 2 -0 2 -8 8 -4 -2 -3 1 1 -1 -2 -0
-2 -3 -3 -3 -3 -2 -2 -2 1 1 -2 -3 -2 -3 -1 -1 -1 -0 -2 1 2 -3 -2 -2 -3 -3 0 -1 2 3 -3 1 -13 2 -4 -7 15 -3 3 -2 -1 -0 -0 -1 -1
-2 -1 -1 -1 -2 -2 -2 -2 -3 1 1 -0 3 -2 -3 -1 1 0 0 -3 -7 -4 0 -1 0 -4 5 -11 -3 10 5 -1 2 -3 -11 -3 9 -2 1 -0 1 0 -3 1 -2
-3 -1 -0 -1 -0 -4 -2 2 1 -1 -1 -2 1 1 4 2 6 1 -1 -1 -1 -3 -4 -1 -6 -7 19 -4 3 -4 -8 1 2 -5 14 -4 6 -0 4 -2 2 0 2 -3 2
-0 0 0 1 -0 2 1 -0 -4 -1 -2 1 -3 2 -4 1 2 -1 2 1 -1 -3 1 -0 -12 -4 4 -6 3 0 -5 -5 8 9 -10 -0 -0 6 1 -1 3 4 -0 1 -1
1 -2 0 1 2 1 3 1 -1 -4 11 -6 -0 1 2 0 3 -1 -0 -4 -4 0 -0 -3 1 8 -5 5 1 3 -1 5 0 8 -10 -2 3 4 7 -0 0 -1 4 3 -0
-1 -3 -2 -4 -1 -0 0 1 -1 -2 -4 7 4 5 -0 -0 -11 -4 5 5 -8 1 -2 -13 10 -2 5 4 4 4 2 4 -11 5 -4 -1 -0 -1 1 2 -4 2 -1 2 2
-2 -2 -4 -5 -2 -2 -3 -4 -1 -6 -6 -24 4 -4 -3 -4 -2 -4 2 -5 -5 1 -1 -11 15 3 -7 7 2 1 6 -3 0 -0 1 -10 -26 -5 -2 3 -1 -4 -4 2 0
-0 -1 -1 -0 -5 -1 4 -1 -0 -5 4 -23 -2 -1 -1 1 4 -4 3 3 1 2 -4 7 -1 6 -15 3 -2 7 -1 3 1 2 -4 16 -38 42 -2 8 -1 -4 0 1 2
-1 -1 -2 2 -1 -3 -2 -4 4 -0 -4 -7 1 1 -2 -2 -2 1 -5 4 3 -10 -6 4 0 -8 7 4 3 9 -1 -3 4 3 -30 36 3 9 2 -6 18 -2 -6 -1 2
-0 1 -2 1 -3 -3 -5 -4 0 11 -15 -7 3 -1 -0 -4 -2 15 3 4 -4 -16 20 3 -4 5 -2 -5 6 4 -2 -7 -22 -8 -17 18 -11 -5 1 -3 9 -7 -1 1 3
-2 -3 -3 -2 -3 -1 -2 -10 -0 -7 3 2 3 -0 -2 5 2 -3 2 6 -25 5 1 10 -32 47 36 -22 4 -16 8 -7 -12 8 -4 -7 -25 3 -6 5 -2 0 -6 2 1
-5 -6 -3 1 -3 -6 -4 1 -5 3 4 -0 5 -6 15 -10 8 4 -1 9 -7 3 5 1 -29 23 0 0 -12 -2 -20 19 -5 1 -9 2 -1 -1 -5 -6 -2 1 6 5 -1
2 0 -1 -5 -9 2 -4 -1 3 -6 -3 2 -2 1 4 -2 -6 -2 3 7 -11 -4 3 4 -47 31 1 6 -9 -1 28 -5 16 -19 -9 1 -3 -17 -19 -4 -3 3 1 3 -1
-10 -1 -3 -2 -2 -7 -4 -11 -3 -4 -1 5 7 -4 -1 -3 4 3 -5 1 -11 -6 -3 3 -16 -15 -17 33 0 28 -3 -1 -3 38 -19 3 -11 26 13 -4 -2 1 6 10 -1
-4 -11 2 2 1 -6 -2 6 2 1 4 4 -1 8 -1 -1 -1 -3 -3 -9 -8 -12 4 16 -7 -29 24 15 12 12 -3 -4 88 18 -6 11 10 -4 -4 -1 -2 -11 -0 10 1
2 20 7 5 3 -3 4 -1 1 6 3 4 -3 -4 -3 -5 -18 -10 9 -8 -3 0 -1 2 6 -20 -1 8 17 -11 -3 0 -13 3 45 13 3 0 10 0 -9 -11 8 7 3
14 17 9 -8 3 2 7 1 8 7 1 -6 -6 -9 -5 -3 -6 -13 14 -6 -8 -1 -2 -4 2 -2 -1 -0 -1 -5 0 -0 -3 6 -20 44 -1 57 -12 -7 -2 -11 8 1 2
-3 -8 18 0 5 7 7 7 2 2 -1 -10 -8 -11 -5 -7 -3 3 1 -3 -4 3 -1 -4 -4 3 4 -8 -3 8 -5 4 -6 3 -8 16 44 40 1 -9 7 -6 11 -3 -1
8 3 8 11 1 7 1 2 -8 5 -7 -12 -12 -7 -5 -1 -3 0 -4 -3 -3 6 -4 -1 -1 2 -3 -9 -2 -3 3 0 0 3 -14 -7 28 16 12 -3 5 23 8 6 -2
23 6 9 9 -1 1 1 -6 -4 4 -1 -11 -4 -2 -4 -1 -1 -5 -3 1 -5 1 -0 -3 -2 2 -12 -2 -3 -12 2 -5 4 8 -7 -8 22 -10 -10 2 -1 0 12 8 6
Height
5874 5872 5871 5870 5869 5868 5867 5866 5864 5863 5860 5859 5858 5856 5854 5851 5850 5848 5847 5845 5843 5842 5841 5840 5839 5838 5836 5836 5835 5834 5834 5832 5831 5830 5830 5829 5828 5829 5829 5829 5830 5830 5828 5827 5826
5870 5869 5868 5867 5866 5865 5864 5862 5860 5859 5857 5855 5853 5852 5850 5848 5846 5845 5843 5841 5840 5839 5837 5836 5835 5833 5833 5832 5832 5831 5831 5829 5828 5828 5826 5826 5825 5825 5825 5825 5826 5825 5822 5823 5824
5868 5866 5865 5864 5863 5861 5860 5858 5856 5853 5852 5850 5850 5849 5848 5845 5843 5843 5840 5838 5835 5834 5833 5832 5830 5829 5828 5828 5827 5828 5825 5824 5824 5823 5823 5822 5821 5821 5821 5821 5819 5820 5820 5821 5820
5865 5864 5862 5860 5859 5857 5855 5853 5851 5849 5847 5846 5844 5844 5842 5839 5838 5837 5836 5834 5832 5830 5827 5825 5825 5825 5824 5823 5821 5820 5819 5817 5818 5818 5818 5816 5815 5816 5814 5815 5813 5815 5814 5815 5815
5862 5861 5859 5856 5854 5852 5851 5848 5846 5844 5842 5841 5839 5837 5836 5834 5834 5832 5830 5828 5826 5825 5823 5822 5820 5817 5816 5817 5815 5814 5814 5812 5811 5810 5810 5809 5810 5809 5810 5808 5805 5809 5808 5808 5810
5858 5856 5853 5851 5848 5846 5845 5843 5840 5838 5836 5834 5832 5831 5830 5828 5826 5825 5824 5823 5822 5820 5818 5815 5815 5812 5810 5809 5807 5806 5806 5805 5804 5804 5802 5803 5803 5802 5806 5801 5799 5802 5804 5804 5802
5852 5850 5848 5846 5843 5840 5839 5837 5835 5833 5830 5827 5824 5822 5821 5820 5818 5817 5815 5814 5812 5810 5810 5810 5807 5804 5802 5800 5802 5798 5796 5796 5796 5795 5794 5792 5795 5796 5797 5797 5797 5794 5797 5798 5797
5845 5843 5841 5838 5836 5833 5831 5829 5827 5824 5821 5820 5818 5815 5813 5811 5810 5809 5808 5807 5806 5805 5802 5801 5800 5797 5793 5792 5792 5791 5790 5787 5785 5786 5784 5783 5787 5788 5789 5789 5791 5790 5790 5790 5791
5837 5836 5834 5831 5828 5826 5823 5821 5818 5816 5812 5810 5807 5805 5804 5801 5800 5799 5798 5797 5795 5793 5791 5789 5789 5788 5787 5784 5782 5782 5780 5778 5777 5774 5774 5774 5778 5776 5780 5779 5780 5782 5784 5784 5784
5827 5825 5823 5820 5818 5815 5813 5811 5808 5806 5804 5801 5797 5796 5793 5791 5789 5787 5785 5783 5783 5781 5781 5780 5777 5776 5777 5774 5774 5771 5768 5768 5769 5768 5769 5767 5767 5768 5769 5770 5771 5774 5775 5777 5777
5817 5815 5813 5810 5807 5805 5803 5800 5800 5797 5793 5790 5787 5784 5781 5781 5778 5775 5773 5772 5771 5770 5770 5768 5766 5768 5766 5761 5761 5760 5758 5759 5759 5757 5755 5757 5757 5759 5759 5761 5765 5766 5767 5769 5771
5808 5806 5804 5801 5798 5796 5793 5791 5788 5785 5784 5779 5776 5772 5770 5769 5767 5764 5763 5761 5760 5759 5757 5756 5757 5758 5754 5751 5751 5748 5748 5751 5750 5747 5745 5746 5748 5748 5753 5753 5756 5756 5758 5761 5762
5798 5795 5793 5792 5790 5788 5783 5780 5776 5771 5769 5769 5765 5761 5760 5757 5754 5751 5749 5746 5745 5746 5745 5744 5746 5743 5743 5742 5737 5739 5737 5738 5737 5735 5734 5736 5738 5740 5743 5744 5748 5748 5749 5752 5755
5787 5783 5780 5778 5777 5771 5769 5765 5762 5757 5754 5750 5749 5747 5745 5743 5739 5739 5736 5736 5734 5734 5733 5734 5736 5732 5731 5730 5726 5728 5726 5726 5726 5725 5724 5723 5725 5730 5732 5739 5739 5740 5741 5744 5747
5775 5772 5769 5765 5763 5759 5756 5751 5747 5744 5740 5733 5732 5732 5732 5729 5727 5726 5725 5723 5721 5723 5724 5727 5725 5725 5724 5724 5718 5721 5716 5716 5715 5714 5714 5717 5714 5723 5725 5727 5732 5728 5732 5735 5738
5761 5758 5754 5752 5749 5747 5743 5739 5737 5733 5725 5724 5724 5720 5719 5717 5715 5713 5714 5712 5710 5711 5711 5716 5715 5715 5716 5713 5711 5711 5707 5707 5707 5706 5705 5709 5704 5712 5712 5713 5721 5717 5720 5725 5729
5745 5743 5740 5737 5734 5731 5727 5724 5723 5720 5712 5711 5710 5709 5706 5706 5703 5704 5701 5698 5696 5698 5700 5701 5704 5706 5704 5704 5703 5701 5699 5698 5696 5698 5697 5698 5693 5702 5703 5700 5708 5707 5710 5717 5721
5730 5727 5724 5721 5719 5716 5712 5709 5707 5702 5699 5698 5699 5697 5694 5696 5691 5691 5690 5686 5681 5685 5687 5685 5690 5697 5694 5690 5692 5691 5691 5688 5687 5689 5689 5686 5684 5692 5691 5693 5693 5697 5699 5707 5712
5714 5710 5708 5706 5702 5699 5695 5690 5688 5686 5687 5685 5683 5682 5682 5678 5679 5677 5675 5672 5670 5672 5669 5667 5671 5684 5675 5673 5677 5682 5674 5684 5675 5676 5673 5678 5678 5681 5681 5683 5684 5685 5691 5696 5702
5698 5695 5693 5689 5686 5682 5679 5677 5673 5670 5671 5669 5668 5668 5666 5664 5665 5661 5659 5657 5651 5653 5653 5649 5647 5664 5663 5654 5661 5659 5667 5666 5666 5659 5662 5666 5671 5671 5670 5674 5676 5677 5680 5685 5692
5679 5674 5675 5672 5668 5665 5663 5658 5657 5657 5657 5657 5654 5651 5651 5651 5649 5644 5642 5641 5633 5631 5627 5624 5621 5642 5631 5641 5637 5644 5643 5648 5651 5647 5648 5657 5664 5667 5667 5666 5668 5669 5672 5674 5682
5664 5660 5658 5654 5653 5650 5649 5647 5646 5645 5643 5641 5637 5635 5633 5631 5631 5628 5625 5619 5613 5610 5608 5602 5593 5599 5607 5612 5614 5620 5621 5632 5625 5633 5635 5646 5658 5651 5659 5658 5660 5660 5662 5666 5672
5651 5647 5642 5642 5640 5636 5636 5635 5633 5630 5628 5624 5620 5620 5618 5616 5611 5610 5602 5597 5593 5589 5585 5581 5579 5574 5584 5590 5599 5599 5604 5612 5617 5613 5623 5632 5644 5643 5647 5647 5651 5652 5653 5658 5664
5635 5632 5630 5626 5624 5621 5618 5619 5617 5615 5610 5607 5606 5604 5603 5597 5589 5584 5581 5577 5573 5570 5566 5562 5562 5563 5563 5568 5579 5578 5588 5594 5600 5602 5609 5616 5632 5633 5627 5636 5643 5646 5647 5651 5657
5616 5618 5614 5612 5610 5608 5607 5606 5602 5599 5596 5593 5591 5589 5587 5580 5573 5571 5567 5563 5560 5557 5554 5550 5549 5549 5547 5550 5559 5566 5573 5579 5583 5589 5595 5609 5613 5606 5620 5628 5638 5639 5642 5646 5652
5605 5603 5599 5597 5598 5593 5591 5590 5588 5585 5583 5579 5576 5573 5569 5565 5561 5557 5552 5551 5548 5544 5539 5539 5538 5537 5535 5539 5542 5546 5557 5562 5567 5574 5581 5590 5598 5605 5612 5622 5633 5634 5638 5642 5646
5587 5587 5584 5583 5583 5580 5579 5577 5575 5573 5570 5566 5564 5561 5562 5557 5553 5546 5542 5541 5537 5533 5531 5529 5529 5529 5527 5531 5529 5529 5545 5552 5557 5562 5569 5578 5592 5599 5607 5616 5624 5630 5634 5637 5642